segment_id,date_local,uptime,ped_lft,ped_rgt,ped_total,bike_lft,bike_rgt,bike_total,car_lft,car_rgt,car_total,heavy_lft,heavy_rgt,heavy_total,v85,car_speed0,car_speed10,car_speed20,car_speed30,car_speed40,car_speed50,car_speed60,car_speed70
100024661,2020-03-01 00:00,1.0,,,,38,69,107,,,,,,,
100024661,2020-03-01 01:00,1.0,,,,34,39,73,,,,,,,
100024661,2020-03-01 02:00,1.0,,,,27,19,46,,,,,,,
100024661,2020-03-01 03:00,1.0,,,,15,22,37,,,,,,,
100024661,2020-03-01 04:00,1.0,,,,15,6,21,,,,,,,
100024661,2020-03-01 05:00,1.0,,,,10,9,19,,,,,,,
100024661,2020-03-01 06:00,1.0,,,,4,8,12,,,,,,,
100024661,2020-03-01 07:00,1.0,,,,20,9,29,,,,,,,
100024661,2020-03-01 08:00,1.0,,,,28,29,57,,,,,,,
100024661,2020-03-01 09:00,1.0,,,,51,59,110,,,,,,,
100024661,2020-03-01 10:00,1.0,,,,73,74,147,,,,,,,
100024661,2020-03-01 11:00,1.0,,,,114,90,204,,,,,,,
100024661,2020-03-01 12:00,1.0,,,,112,90,202,,,,,,,
100024661,2020-03-01 13:00,1.0,,,,105,78,183,,,,,,,
100024661,2020-03-01 14:00,1.0,,,,88,90,178,,,,,,,
100024661,2020-03-01 15:00,1.0,,,,129,108,237,,,,,,,
100024661,2020-03-01 16:00,1.0,,,,92,134,226,,,,,,,
100024661,2020-03-01 17:00,1.0,,,,117,120,237,,,,,,,
100024661,2020-03-01 18:00,1.0,,,,116,127,243,,,,,,,
100024661,2020-03-01 19:00,1.0,,,,96,104,200,,,,,,,
100024661,2020-03-01 20:00,1.0,,,,76,77,153,,,,,,,
100024661,2020-03-01 21:00,1.0,,,,40,109,149,,,,,,,
100024661,2020-03-01 22:00,1.0,,,,32,52,84,,,,,,,
100024661,2020-03-01 23:00,1.0,,,,33,27,60,,,,,,,
100024661,2020-03-02 00:00,1.0,,,,18,33,51,,,,,,,
100024661,2020-03-02 01:00,1.0,,,,7,13,20,,,,,,,
100024661,2020-03-02 02:00,1.0,,,,5,6,11,,,,,,,
100024661,2020-03-02 03:00,1.0,,,,2,2,4,,,,,,,
100024661,2020-03-02 04:00,1.0,,,,3,6,9,,,,,,,
100024661,2020-03-02 05:00,1.0,,,,8,20,28,,,,,,,
100024661,2020-03-02 06:00,1.0,,,,46,87,133,,,,,,,
100024661,2020-03-02 07:00,1.0,,,,115,299,414,,,,,,,
100024661,2020-03-02 08:00,1.0,,,,370,676,1046,,,,,,,
100024661,2020-03-02 09:00,1.0,,,,315,492,807,,,,,,,
100024661,2020-03-02 10:00,1.0,,,,136,149,285,,,,,,,
100024661,2020-03-02 11:00,1.0,,,,127,123,250,,,,,,,
100024661,2020-03-02 12:00,1.0,,,,127,125,252,,,,,,,
100024661,2020-03-02 13:00,1.0,,,,133,161,294,,,,,,,
100024661,2020-03-02 14:00,1.0,,,,174,160,334,,,,,,,
100024661,2020-03-02 15:00,1.0,,,,292,244,536,,,,,,,
100024661,2020-03-02 16:00,1.0,,,,341,204,545,,,,,,,
100024661,2020-03-02 17:00,1.0,,,,435,309,744,,,,,,,
100024661,2020-03-02 18:00,1.0,,,,511,392,903,,,,,,,
100024661,2020-03-02 19:00,1.0,,,,295,270,565,,,,,,,
100024661,2020-03-02 20:00,1.0,,,,157,147,304,,,,,,,
100024661,2020-03-02 21:00,1.0,,,,114,121,235,,,,,,,
100024661,2020-03-02 22:00,1.0,,,,92,75,167,,,,,,,
100024661,2020-03-02 23:00,1.0,,,,50,52,102,,,,,,,
100024661,2020-03-03 00:00,1.0,,,,22,26,48,,,,,,,
100024661,2020-03-03 01:00,1.0,,,,9,7,16,,,,,,,
100024661,2020-03-03 02:00,1.0,,,,6,7,13,,,,,,,
100024661,2020-03-03 03:00,1.0,,,,8,1,9,,,,,,,
100024661,2020-03-03 04:00,1.0,,,,3,4,7,,,,,,,
100024661,2020-03-03 05:00,1.0,,,,18,24,42,,,,,,,
100024661,2020-03-03 06:00,1.0,,,,36,89,125,,,,,,,
100024661,2020-03-03 07:00,1.0,,,,131,292,423,,,,,,,
100024661,2020-03-03 08:00,1.0,,,,326,695,1021,,,,,,,
100024661,2020-03-03 09:00,1.0,,,,362,499,861,,,,,,,
100024661,2020-03-03 10:00,1.0,,,,163,208,371,,,,,,,
100024661,2020-03-03 11:00,1.0,,,,134,148,282,,,,,,,
100024661,2020-03-03 12:00,1.0,,,,144,163,307,,,,,,,
100024661,2020-03-03 13:00,1.0,,,,161,150,311,,,,,,,
100024661,2020-03-03 14:00,1.0,,,,176,163,339,,,,,,,
100024661,2020-03-03 15:00,1.0,,,,253,209,462,,,,,,,
100024661,2020-03-03 16:00,1.0,,,,325,187,512,,,,,,,
100024661,2020-03-03 17:00,1.0,,,,433,299,732,,,,,,,
100024661,2020-03-03 18:00,1.0,,,,494,398,892,,,,,,,
100024661,2020-03-03 19:00,1.0,,,,314,275,589,,,,,,,
100024661,2020-03-03 20:00,1.0,,,,164,162,326,,,,,,,
100024661,2020-03-03 21:00,1.0,,,,148,112,260,,,,,,,
100024661,2020-03-03 22:00,1.0,,,,92,103,195,,,,,,,
100024661,2020-03-03 23:00,1.0,,,,56,54,110,,,,,,,
100024661,2020-03-04 00:00,1.0,,,,23,17,40,,,,,,,
100024661,2020-03-04 01:00,1.0,,,,10,12,22,,,,,,,
100024661,2020-03-04 02:00,1.0,,,,5,7,12,,,,,,,
100024661,2020-03-04 03:00,1.0,,,,7,3,10,,,,,,,
100024661,2020-03-04 04:00,1.0,,,,4,5,9,,,,,,,
100024661,2020-03-04 05:00,1.0,,,,12,25,37,,,,,,,
100024661,2020-03-04 06:00,1.0,,,,45,105,150,,,,,,,
100024661,2020-03-04 07:00,1.0,,,,149,293,442,,,,,,,
100024661,2020-03-04 08:00,1.0,,,,382,722,1104,,,,,,,
100024661,2020-03-04 09:00,1.0,,,,422,577,999,,,,,,,
100024661,2020-03-04 10:00,1.0,,,,179,198,377,,,,,,,
100024661,2020-03-04 11:00,1.0,,,,147,143,290,,,,,,,
100024661,2020-03-04 12:00,1.0,,,,136,133,269,,,,,,,
100024661,2020-03-04 13:00,1.0,,,,168,177,345,,,,,,,
100024661,2020-03-04 14:00,1.0,,,,201,201,402,,,,,,,
100024661,2020-03-04 15:00,1.0,,,,348,239,587,,,,,,,
100024661,2020-03-04 16:00,1.0,,,,386,234,620,,,,,,,
100024661,2020-03-04 17:00,1.0,,,,502,360,862,,,,,,,
100024661,2020-03-04 18:00,1.0,,,,580,469,1049,,,,,,,
100024661,2020-03-04 19:00,1.0,,,,306,326,632,,,,,,,
100024661,2020-03-04 20:00,1.0,,,,183,200,383,,,,,,,
100024661,2020-03-04 21:00,1.0,,,,117,122,239,,,,,,,
100024661,2020-03-04 22:00,1.0,,,,104,92,196,,,,,,,
100024661,2020-03-04 23:00,1.0,,,,78,71,149,,,,,,,
100024661,2020-03-05 00:00,1.0,,,,35,28,63,,,,,,,
100024661,2020-03-05 01:00,1.0,,,,8,20,28,,,,,,,
100024661,2020-03-05 02:00,1.0,,,,7,11,18,,,,,,,
100024661,2020-03-05 03:00,1.0,,,,2,7,9,,,,,,,
100024661,2020-03-05 04:00,1.0,,,,10,3,13,,,,,,,
100024661,2020-03-05 05:00,1.0,,,,14,25,39,,,,,,,
100024661,2020-03-05 06:00,1.0,,,,44,91,135,,,,,,,
100024661,2020-03-05 07:00,1.0,,,,154,298,452,,,,,,,
100024661,2020-03-05 08:00,1.0,,,,365,726,1091,,,,,,,
100024661,2020-03-05 09:00,1.0,,,,395,564,959,,,,,,,
100024661,2020-03-05 10:00,1.0,,,,165,220,385,,,,,,,
100024661,2020-03-05 11:00,1.0,,,,153,161,314,,,,,,,
100024661,2020-03-05 12:00,1.0,,,,167,147,314,,,,,,,
100024661,2020-03-05 13:00,1.0,,,,193,177,370,,,,,,,
100024661,2020-03-05 14:00,1.0,,,,249,223,472,,,,,,,
100024661,2020-03-05 15:00,1.0,,,,351,251,602,,,,,,,
100024661,2020-03-05 16:00,1.0,,,,345,257,602,,,,,,,
100024661,2020-03-05 17:00,1.0,,,,518,320,838,,,,,,,
100024661,2020-03-05 18:00,1.0,,,,549,463,1012,,,,,,,
100024661,2020-03-05 19:00,1.0,,,,338,330,668,,,,,,,
100024661,2020-03-05 20:00,1.0,,,,202,185,387,,,,,,,
100024661,2020-03-05 21:00,1.0,,,,119,156,275,,,,,,,
100024661,2020-03-05 22:00,1.0,,,,110,137,247,,,,,,,
100024661,2020-03-05 23:00,1.0,,,,77,92,169,,,,,,,
100024661,2020-03-06 00:00,1.0,,,,38,54,92,,,,,,,
100024661,2020-03-06 01:00,1.0,,,,19,19,38,,,,,,,
100024661,2020-03-06 02:00,1.0,,,,13,13,26,,,,,,,
100024661,2020-03-06 03:00,1.0,,,,10,2,12,,,,,,,
100024661,2020-03-06 04:00,1.0,,,,6,5,11,,,,,,,
100024661,2020-03-06 05:00,1.0,,,,11,10,21,,,,,,,
100024661,2020-03-06 06:00,1.0,,,,31,59,90,,,,,,,
100024661,2020-03-06 07:00,1.0,,,,98,210,308,,,,,,,
100024661,2020-03-06 08:00,1.0,,,,271,501,772,,,,,,,
100024661,2020-03-06 09:00,1.0,,,,255,409,664,,,,,,,
100024661,2020-03-06 10:00,1.0,,,,149,144,293,,,,,,,
100024661,2020-03-06 11:00,1.0,,,,95,99,194,,,,,,,
100024661,2020-03-06 12:00,1.0,,,,109,84,193,,,,,,,
100024661,2020-03-06 13:00,1.0,,,,148,105,253,,,,,,,
100024661,2020-03-06 14:00,1.0,,,,176,157,333,,,,,,,
100024661,2020-03-06 15:00,1.0,,,,239,183,422,,,,,,,
100024661,2020-03-06 16:00,1.0,,,,244,153,397,,,,,,,
100024661,2020-03-06 17:00,1.0,,,,305,176,481,,,,,,,
100024661,2020-03-06 18:00,1.0,,,,293,237,530,,,,,,,
100024661,2020-03-06 19:00,1.0,,,,162,175,337,,,,,,,
100024661,2020-03-06 20:00,1.0,,,,94,84,178,,,,,,,
100024661,2020-03-06 21:00,1.0,,,,61,84,145,,,,,,,
100024661,2020-03-06 22:00,1.0,,,,60,54,114,,,,,,,
100024661,2020-03-06 23:00,1.0,,,,40,64,104,,,,,,,
100024661,2020-03-07 00:00,1.0,,,,34,26,60,,,,,,,
100024661,2020-03-07 01:00,1.0,,,,33,44,77,,,,,,,
100024661,2020-03-07 02:00,1.0,,,,27,14,41,,,,,,,
100024661,2020-03-07 03:00,1.0,,,,11,10,21,,,,,,,
100024661,2020-03-07 04:00,1.0,,,,13,6,19,,,,,,,
100024661,2020-03-07 05:00,1.0,,,,9,7,16,,,,,,,
100024661,2020-03-07 06:00,1.0,,,,6,8,14,,,,,,,
100024661,2020-03-07 07:00,1.0,,,,20,16,36,,,,,,,
100024661,2020-03-07 08:00,1.0,,,,36,42,78,,,,,,,
100024661,2020-03-07 09:00,1.0,,,,69,62,131,,,,,,,
100024661,2020-03-07 10:00,1.0,,,,67,72,139,,,,,,,
100024661,2020-03-07 11:00,1.0,,,,93,64,157,,,,,,,
100024661,2020-03-07 12:00,1.0,,,,104,104,208,,,,,,,
100024661,2020-03-07 13:00,1.0,,,,98,131,229,,,,,,,
100024661,2020-03-07 14:00,1.0,,,,117,110,227,,,,,,,
100024661,2020-03-07 15:00,1.0,,,,111,139,250,,,,,,,
100024661,2020-03-07 16:00,1.0,,,,122,156,278,,,,,,,
100024661,2020-03-07 17:00,1.0,,,,114,136,250,,,,,,,
100024661,2020-03-07 18:00,1.0,,,,134,142,276,,,,,,,
100024661,2020-03-07 19:00,1.0,,,,123,118,241,,,,,,,
100024661,2020-03-07 20:00,1.0,,,,65,104,169,,,,,,,
100024661,2020-03-07 21:00,1.0,,,,49,88,137,,,,,,,
100024661,2020-03-07 22:00,1.0,,,,74,75,149,,,,,,,
100024661,2020-03-07 23:00,1.0,,,,46,68,114,,,,,,,
100024661,2020-03-08 00:00,1.0,,,,38,51,89,,,,,,,
100024661,2020-03-08 01:00,1.0,,,,30,28,58,,,,,,,
100024661,2020-03-08 02:00,1.0,,,,21,29,50,,,,,,,
100024661,2020-03-08 03:00,1.0,,,,24,21,45,,,,,,,
100024661,2020-03-08 04:00,1.0,,,,11,12,23,,,,,,,
100024661,2020-03-08 05:00,1.0,,,,8,4,12,,,,,,,
100024661,2020-03-08 06:00,1.0,,,,14,6,20,,,,,,,
100024661,2020-03-08 07:00,1.0,,,,15,12,27,,,,,,,
100024661,2020-03-08 08:00,1.0,,,,32,31,63,,,,,,,
100024661,2020-03-08 09:00,1.0,,,,42,53,95,,,,,,,
100024661,2020-03-08 10:00,1.0,,,,59,79,138,,,,,,,
100024661,2020-03-08 11:00,1.0,,,,86,94,180,,,,,,,
100024661,2020-03-08 12:00,1.0,,,,84,94,178,,,,,,,
100024661,2020-03-08 13:00,1.0,,,,115,105,220,,,,,,,
100024661,2020-03-08 14:00,1.0,,,,120,139,259,,,,,,,
100024661,2020-03-08 15:00,1.0,,,,148,155,303,,,,,,,
100024661,2020-03-08 16:00,1.0,,,,126,157,283,,,,,,,
100024661,2020-03-08 17:00,1.0,,,,122,189,311,,,,,,,
100024661,2020-03-08 18:00,1.0,,,,121,146,267,,,,,,,
100024661,2020-03-08 19:00,1.0,,,,80,102,182,,,,,,,
100024661,2020-03-08 20:00,1.0,,,,57,56,113,,,,,,,
100024661,2020-03-08 21:00,1.0,,,,46,73,119,,,,,,,
100024661,2020-03-08 22:00,1.0,,,,35,55,90,,,,,,,
100024661,2020-03-08 23:00,1.0,,,,35,31,66,,,,,,,
100024661,2020-03-09 00:00,1.0,,,,21,22,43,,,,,,,
100024661,2020-03-09 01:00,1.0,,,,7,13,20,,,,,,,
100024661,2020-03-09 02:00,1.0,,,,1,7,8,,,,,,,
100024661,2020-03-09 03:00,1.0,,,,6,2,8,,,,,,,
100024661,2020-03-09 04:00,1.0,,,,4,5,9,,,,,,,
100024661,2020-03-09 05:00,1.0,,,,10,25,35,,,,,,,
100024661,2020-03-09 06:00,1.0,,,,41,87,128,,,,,,,
100024661,2020-03-09 07:00,1.0,,,,104,257,361,,,,,,,
100024661,2020-03-09 08:00,1.0,,,,230,506,736,,,,,,,
100024661,2020-03-09 09:00,1.0,,,,243,364,607,,,,,,,
100024661,2020-03-09 10:00,1.0,,,,115,131,246,,,,,,,
100024661,2020-03-09 11:00,1.0,,,,120,121,241,,,,,,,
100024661,2020-03-09 12:00,1.0,,,,122,135,257,,,,,,,
100024661,2020-03-09 13:00,1.0,,,,132,128,260,,,,,,,
100024661,2020-03-09 14:00,1.0,,,,183,147,330,,,,,,,
100024661,2020-03-09 15:00,1.0,,,,250,151,401,,,,,,,
100024661,2020-03-09 16:00,1.0,,,,289,181,470,,,,,,,
100024661,2020-03-09 17:00,1.0,,,,411,286,697,,,,,,,
100024661,2020-03-09 18:00,1.0,,,,426,315,741,,,,,,,
100024661,2020-03-09 19:00,1.0,,,,235,235,470,,,,,,,
100024661,2020-03-09 20:00,1.0,,,,149,131,280,,,,,,,
100024661,2020-03-09 21:00,1.0,,,,99,108,207,,,,,,,
100024661,2020-03-09 22:00,1.0,,,,94,63,157,,,,,,,
100024661,2020-03-09 23:00,1.0,,,,40,55,95,,,,,,,
100024661,2020-03-10 00:00,1.0,,,,16,31,47,,,,,,,
100024661,2020-03-10 01:00,1.0,,,,6,16,22,,,,,,,
100024661,2020-03-10 02:00,1.0,,,,2,7,9,,,,,,,
100024661,2020-03-10 03:00,1.0,,,,4,3,7,,,,,,,
100024661,2020-03-10 04:00,1.0,,,,4,3,7,,,,,,,
100024661,2020-03-10 05:00,1.0,,,,15,31,46,,,,,,,
100024661,2020-03-10 06:00,1.0,,,,39,91,130,,,,,,,
100024661,2020-03-10 07:00,1.0,,,,136,289,425,,,,,,,
100024661,2020-03-10 08:00,1.0,,,,374,721,1095,,,,,,,
100024661,2020-03-10 09:00,1.0,,,,368,551,919,,,,,,,
100024661,2020-03-10 10:00,1.0,,,,141,179,320,,,,,,,
100024661,2020-03-10 11:00,1.0,,,,101,112,213,,,,,,,
100024661,2020-03-10 12:00,1.0,,,,107,96,203,,,,,,,
100024661,2020-03-10 13:00,1.0,,,,125,104,229,,,,,,,
100024661,2020-03-10 14:00,1.0,,,,165,105,270,,,,,,,
100024661,2020-03-10 15:00,1.0,,,,256,187,443,,,,,,,
100024661,2020-03-10 16:00,1.0,,,,297,189,486,,,,,,,
100024661,2020-03-10 17:00,1.0,,,,372,224,596,,,,,,,
100024661,2020-03-10 18:00,1.0,,,,398,278,676,,,,,,,
100024661,2020-03-10 19:00,1.0,,,,210,186,396,,,,,,,
100024661,2020-03-10 20:00,1.0,,,,122,82,204,,,,,,,
100024661,2020-03-10 21:00,1.0,,,,96,95,191,,,,,,,
100024661,2020-03-10 22:00,1.0,,,,73,44,117,,,,,,,
100024661,2020-03-10 23:00,1.0,,,,30,42,72,,,,,,,
100024661,2020-03-11 00:00,1.0,,,,24,15,39,,,,,,,
100024661,2020-03-11 01:00,1.0,,,,5,4,9,,,,,,,
100024661,2020-03-11 02:00,1.0,,,,6,3,9,,,,,,,
100024661,2020-03-11 03:00,1.0,,,,1,1,2,,,,,,,
100024661,2020-03-11 04:00,1.0,,,,1,1,2,,,,,,,
100024661,2020-03-11 05:00,1.0,,,,15,29,44,,,,,,,
100024661,2020-03-11 06:00,1.0,,,,37,98,135,,,,,,,
100024661,2020-03-11 07:00,1.0,,,,132,312,444,,,,,,,
100024661,2020-03-11 08:00,1.0,,,,402,746,1148,,,,,,,
100024661,2020-03-11 09:00,1.0,,,,406,546,952,,,,,,,
100024661,2020-03-11 10:00,1.0,,,,208,225,433,,,,,,,
100024661,2020-03-11 11:00,1.0,,,,163,153,316,,,,,,,
100024661,2020-03-11 12:00,1.0,,,,153,192,345,,,,,,,
100024661,2020-03-11 13:00,1.0,,,,195,206,401,,,,,,,
100024661,2020-03-11 14:00,1.0,,,,251,192,443,,,,,,,
100024661,2020-03-11 15:00,1.0,,,,346,235,581,,,,,,,
100024661,2020-03-11 16:00,1.0,,,,397,280,677,,,,,,,
100024661,2020-03-11 17:00,1.0,,,,510,355,865,,,,,,,
100024661,2020-03-11 18:00,1.0,,,,609,455,1064,,,,,,,
100024661,2020-03-11 19:00,1.0,,,,342,364,706,,,,,,,
100024661,2020-03-11 20:00,1.0,,,,159,190,349,,,,,,,
100024661,2020-03-11 21:00,1.0,,,,132,153,285,,,,,,,
100024661,2020-03-11 22:00,1.0,,,,125,99,224,,,,,,,
100024661,2020-03-11 23:00,1.0,,,,66,94,160,,,,,,,
100024661,2020-03-12 00:00,1.0,,,,34,27,61,,,,,,,
100024661,2020-03-12 01:00,1.0,,,,13,10,23,,,,,,,
100024661,2020-03-12 02:00,1.0,,,,5,8,13,,,,,,,
100024661,2020-03-12 03:00,1.0,,,,7,2,9,,,,,,,
100024661,2020-03-12 04:00,1.0,,,,4,4,8,,,,,,,
100024661,2020-03-12 05:00,1.0,,,,14,30,44,,,,,,,
100024661,2020-03-12 06:00,1.0,,,,48,87,135,,,,,,,
100024661,2020-03-12 07:00,1.0,,,,138,276,414,,,,,,,
100024661,2020-03-12 08:00,1.0,,,,347,646,993,,,,,,,
100024661,2020-03-12 09:00,1.0,,,,254,317,571,,,,,,,
100024661,2020-03-12 10:00,1.0,,,,161,203,364,,,,,,,
100024661,2020-03-12 11:00,1.0,,,,134,123,257,,,,,,,
100024661,2020-03-12 12:00,1.0,,,,143,121,264,,,,,,,
100024661,2020-03-12 13:00,1.0,,,,152,145,297,,,,,,,
100024661,2020-03-12 14:00,1.0,,,,209,168,377,,,,,,,
100024661,2020-03-12 15:00,1.0,,,,293,222,515,,,,,,,
100024661,2020-03-12 16:00,1.0,,,,311,220,531,,,,,,,
100024661,2020-03-12 17:00,1.0,,,,427,309,736,,,,,,,
100024661,2020-03-12 18:00,1.0,,,,440,361,801,,,,,,,
100024661,2020-03-12 19:00,1.0,,,,274,273,547,,,,,,,
100024661,2020-03-12 20:00,1.0,,,,164,136,300,,,,,,,
100024661,2020-03-12 21:00,1.0,,,,106,125,231,,,,,,,
100024661,2020-03-12 22:00,1.0,,,,82,84,166,,,,,,,
100024661,2020-03-12 23:00,1.0,,,,61,51,112,,,,,,,
100024661,2020-03-13 00:00,1.0,,,,26,41,67,,,,,,,
100024661,2020-03-13 01:00,1.0,,,,18,13,31,,,,,,,
100024661,2020-03-13 02:00,1.0,,,,7,11,18,,,,,,,
100024661,2020-03-13 03:00,1.0,,,,6,6,12,,,,,,,
100024661,2020-03-13 04:00,1.0,,,,0,1,1,,,,,,,
100024661,2020-03-13 05:00,1.0,,,,11,30,41,,,,,,,
100024661,2020-03-13 06:00,1.0,,,,42,88,130,,,,,,,
100024661,2020-03-13 07:00,1.0,,,,115,233,348,,,,,,,
100024661,2020-03-13 08:00,1.0,,,,277,494,771,,,,,,,
100024661,2020-03-13 09:00,1.0,,,,304,360,664,,,,,,,
100024661,2020-03-13 10:00,1.0,,,,155,192,347,,,,,,,
100024661,2020-03-13 11:00,1.0,,,,149,158,307,,,,,,,
100024661,2020-03-13 12:00,1.0,,,,184,160,344,,,,,,,
100024661,2020-03-13 13:00,1.0,,,,214,165,379,,,,,,,
100024661,2020-03-13 14:00,1.0,,,,209,192,401,,,,,,,
100024661,2020-03-13 15:00,1.0,,,,278,211,489,,,,,,,
100024661,2020-03-13 16:00,1.0,,,,273,216,489,,,,,,,
100024661,2020-03-13 17:00,1.0,,,,325,235,560,,,,,,,
100024661,2020-03-13 18:00,1.0,,,,353,276,629,,,,,,,
100024661,2020-03-13 19:00,1.0,,,,178,209,387,,,,,,,
100024661,2020-03-13 20:00,1.0,,,,113,132,245,,,,,,,
100024661,2020-03-13 21:00,1.0,,,,83,87,170,,,,,,,
100024661,2020-03-13 22:00,1.0,,,,53,58,111,,,,,,,
100024661,2020-03-13 23:00,1.0,,,,50,50,100,,,,,,,
100024661,2020-03-14 00:00,1.0,,,,26,33,59,,,,,,,
100024661,2020-03-14 01:00,1.0,,,,27,32,59,,,,,,,
100024661,2020-03-14 02:00,1.0,,,,19,14,33,,,,,,,
100024661,2020-03-14 03:00,1.0,,,,9,3,12,,,,,,,
100024661,2020-03-14 04:00,1.0,,,,11,2,13,,,,,,,
100024661,2020-03-14 05:00,1.0,,,,7,3,10,,,,,,,
100024661,2020-03-14 06:00,1.0,,,,18,11,29,,,,,,,
100024661,2020-03-14 07:00,1.0,,,,19,13,32,,,,,,,
100024661,2020-03-14 08:00,1.0,,,,32,31,63,,,,,,,
100024661,2020-03-14 09:00,1.0,,,,60,67,127,,,,,,,
100024661,2020-03-14 10:00,1.0,,,,91,88,179,,,,,,,
100024661,2020-03-14 11:00,1.0,,,,131,120,251,,,,,,,
100024661,2020-03-14 12:00,1.0,,,,146,173,319,,,,,,,
100024661,2020-03-14 13:00,1.0,,,,177,222,399,,,,,,,
100024661,2020-03-14 14:00,1.0,,,,197,236,433,,,,,,,
100024661,2020-03-14 15:00,1.0,,,,200,265,465,,,,,,,
100024661,2020-03-14 16:00,1.0,,,,174,223,397,,,,,,,
100024661,2020-03-14 17:00,1.0,,,,225,190,415,,,,,,,
100024661,2020-03-14 18:00,1.0,,,,190,200,390,,,,,,,
100024661,2020-03-14 19:00,1.0,,,,128,129,257,,,,,,,
100024661,2020-03-14 20:00,1.0,,,,88,101,189,,,,,,,
100024661,2020-03-14 21:00,1.0,,,,52,66,118,,,,,,,
100024661,2020-03-14 22:00,1.0,,,,41,39,80,,,,,,,
100024661,2020-03-14 23:00,1.0,,,,41,36,77,,,,,,,
100024661,2020-03-15 00:00,1.0,,,,48,35,83,,,,,,,
100024661,2020-03-15 01:00,1.0,,,,20,23,43,,,,,,,
100024661,2020-03-15 02:00,1.0,,,,18,9,27,,,,,,,
100024661,2020-03-15 03:00,1.0,,,,7,7,14,,,,,,,
100024661,2020-03-15 04:00,1.0,,,,4,5,9,,,,,,,
100024661,2020-03-15 05:00,1.0,,,,9,6,15,,,,,,,
100024661,2020-03-15 06:00,1.0,,,,11,3,14,,,,,,,
100024661,2020-03-15 07:00,1.0,,,,12,5,17,,,,,,,
100024661,2020-03-15 08:00,1.0,,,,20,25,45,,,,,,,
100024661,2020-03-15 09:00,1.0,,,,40,50,90,,,,,,,
100024661,2020-03-15 10:00,1.0,,,,59,76,135,,,,,,,
100024661,2020-03-15 11:00,1.0,,,,80,92,172,,,,,,,
100024661,2020-03-15 12:00,1.0,,,,115,133,248,,,,,,,
100024661,2020-03-15 13:00,1.0,,,,149,153,302,,,,,,,
100024661,2020-03-15 14:00,1.0,,,,159,161,320,,,,,,,
100024661,2020-03-15 15:00,1.0,,,,144,164,308,,,,,,,
100024661,2020-03-15 16:00,1.0,,,,100,165,265,,,,,,,
100024661,2020-03-15 17:00,1.0,,,,121,131,252,,,,,,,
100024661,2020-03-15 18:00,1.0,,,,146,128,274,,,,,,,
100024661,2020-03-15 19:00,1.0,,,,73,88,161,,,,,,,
100024661,2020-03-15 20:00,1.0,,,,47,51,98,,,,,,,
100024661,2020-03-15 21:00,1.0,,,,43,38,81,,,,,,,
100024661,2020-03-15 22:00,1.0,,,,42,25,67,,,,,,,
100024661,2020-03-15 23:00,1.0,,,,24,21,45,,,,,,,
100024661,2020-03-16 00:00,1.0,,,,7,10,17,,,,,,,
100024661,2020-03-16 01:00,1.0,,,,2,3,5,,,,,,,
100024661,2020-03-16 02:00,1.0,,,,3,6,9,,,,,,,
100024661,2020-03-16 03:00,1.0,,,,2,3,5,,,,,,,
100024661,2020-03-16 04:00,1.0,,,,4,5,9,,,,,,,
100024661,2020-03-16 05:00,1.0,,,,12,28,40,,,,,,,
100024661,2020-03-16 06:00,1.0,,,,44,97,141,,,,,,,
100024661,2020-03-16 07:00,1.0,,,,156,290,446,,,,,,,
100024661,2020-03-16 08:00,1.0,,,,306,609,915,,,,,,,
100024661,2020-03-16 09:00,1.0,,,,317,433,750,,,,,,,
100024661,2020-03-16 10:00,1.0,,,,165,210,375,,,,,,,
100024661,2020-03-16 11:00,1.0,,,,208,164,372,,,,,,,
100024661,2020-03-16 12:00,1.0,,,,184,169,353,,,,,,,
100024661,2020-03-16 13:00,1.0,,,,224,211,435,,,,,,,
100024661,2020-03-16 14:00,1.0,,,,264,240,504,,,,,,,
100024661,2020-03-16 15:00,1.0,,,,319,272,591,,,,,,,
100024661,2020-03-16 16:00,1.0,,,,375,337,712,,,,,,,
100024661,2020-03-16 17:00,1.0,,,,500,352,852,,,,,,,
100024661,2020-03-16 18:00,1.0,,,,435,345,780,,,,,,,
100024661,2020-03-16 19:00,1.0,,,,251,210,461,,,,,,,
100024661,2020-03-16 20:00,1.0,,,,129,136,265,,,,,,,
100024661,2020-03-16 21:00,1.0,,,,67,72,139,,,,,,,
100024661,2020-03-16 22:00,1.0,,,,44,43,87,,,,,,,
100024661,2020-03-16 23:00,1.0,,,,26,31,57,,,,,,,
100024661,2020-03-17 00:00,1.0,,,,15,13,28,,,,,,,
100024661,2020-03-17 01:00,1.0,,,,6,8,14,,,,,,,
100024661,2020-03-17 02:00,1.0,,,,2,5,7,,,,,,,
100024661,2020-03-17 03:00,1.0,,,,4,1,5,,,,,,,
100024661,2020-03-17 04:00,1.0,,,,3,3,6,,,,,,,
100024661,2020-03-17 05:00,1.0,,,,15,30,45,,,,,,,
100024661,2020-03-17 06:00,1.0,,,,47,103,150,,,,,,,
100024661,2020-03-17 07:00,1.0,,,,131,247,378,,,,,,,
100024661,2020-03-17 08:00,1.0,,,,257,446,703,,,,,,,
100024661,2020-03-17 09:00,1.0,,,,263,377,640,,,,,,,
100024661,2020-03-17 10:00,1.0,,,,166,190,356,,,,,,,
100024661,2020-03-17 11:00,1.0,,,,126,164,290,,,,,,,
100024661,2020-03-17 12:00,1.0,,,,207,205,412,,,,,,,
100024661,2020-03-17 13:00,1.0,,,,202,219,421,,,,,,,
100024661,2020-03-17 14:00,1.0,,,,252,217,469,,,,,,,
100024661,2020-03-17 15:00,1.0,,,,300,247,547,,,,,,,
100024661,2020-03-17 16:00,1.0,,,,388,289,677,,,,,,,
100024661,2020-03-17 17:00,1.0,,,,428,346,774,,,,,,,
100024661,2020-03-17 18:00,1.0,,,,420,346,766,,,,,,,
100024661,2020-03-17 19:00,1.0,,,,223,221,444,,,,,,,
100024661,2020-03-17 20:00,1.0,,,,125,124,249,,,,,,,
100024661,2020-03-17 21:00,1.0,,,,64,74,138,,,,,,,
100024661,2020-03-17 22:00,1.0,,,,48,34,82,,,,,,,
100024661,2020-03-17 23:00,1.0,,,,31,29,60,,,,,,,
100024661,2020-03-18 00:00,1.0,,,,18,11,29,,,,,,,
100024661,2020-03-18 01:00,1.0,,,,7,7,14,,,,,,,
100024661,2020-03-18 02:00,1.0,,,,4,9,13,,,,,,,
100024661,2020-03-18 03:00,1.0,,,,6,1,7,,,,,,,
100024661,2020-03-18 04:00,1.0,,,,3,3,6,,,,,,,
100024661,2020-03-18 05:00,1.0,,,,17,30,47,,,,,,,
100024661,2020-03-18 06:00,1.0,,,,42,96,138,,,,,,,
100024661,2020-03-18 07:00,1.0,,,,126,223,349,,,,,,,
100024661,2020-03-18 08:00,1.0,,,,212,405,617,,,,,,,
100024661,2020-03-18 09:00,1.0,,,,216,333,549,,,,,,,
100024661,2020-03-18 10:00,1.0,,,,144,180,324,,,,,,,
100024661,2020-03-18 11:00,1.0,,,,172,172,344,,,,,,,
100024661,2020-03-18 12:00,1.0,,,,177,189,366,,,,,,,
100024661,2020-03-18 13:00,1.0,,,,209,235,444,,,,,,,
100024661,2020-03-18 14:00,1.0,,,,233,243,476,,,,,,,
100024661,2020-03-18 15:00,1.0,,,,249,250,499,,,,,,,
100024661,2020-03-18 16:00,1.0,,,,328,246,574,,,,,,,
100024661,2020-03-18 17:00,1.0,,,,390,296,686,,,,,,,
100024661,2020-03-18 18:00,1.0,,,,384,290,674,,,,,,,
100024661,2020-03-18 19:00,1.0,,,,221,194,415,,,,,,,
100024661,2020-03-18 20:00,1.0,,,,92,93,185,,,,,,,
100024661,2020-03-18 21:00,1.0,,,,75,57,132,,,,,,,
100024661,2020-03-18 22:00,1.0,,,,45,38,83,,,,,,,
100024661,2020-03-18 23:00,1.0,,,,28,38,66,,,,,,,
100024661,2020-03-19 00:00,1.0,,,,8,21,29,,,,,,,
100024661,2020-03-19 01:00,1.0,,,,9,4,13,,,,,,,
100024661,2020-03-19 02:00,1.0,,,,3,6,9,,,,,,,
100024661,2020-03-19 03:00,1.0,,,,2,3,5,,,,,,,
100024661,2020-03-19 04:00,1.0,,,,3,6,9,,,,,,,
100024661,2020-03-19 05:00,1.0,,,,17,27,44,,,,,,,
100024661,2020-03-19 06:00,1.0,,,,28,95,123,,,,,,,
100024661,2020-03-19 07:00,1.0,,,,115,192,307,,,,,,,
100024661,2020-03-19 08:00,1.0,,,,202,343,545,,,,,,,
100024661,2020-03-19 09:00,1.0,,,,211,272,483,,,,,,,
100024661,2020-03-19 10:00,1.0,,,,127,177,304,,,,,,,
100024661,2020-03-19 11:00,1.0,,,,113,142,255,,,,,,,
100024661,2020-03-19 12:00,1.0,,,,173,146,319,,,,,,,
100024661,2020-03-19 13:00,1.0,,,,169,173,342,,,,,,,
100024661,2020-03-19 14:00,1.0,,,,181,168,349,,,,,,,
100024661,2020-03-19 15:00,1.0,,,,236,223,459,,,,,,,
100024661,2020-03-19 16:00,1.0,,,,288,208,496,,,,,,,
100024661,2020-03-19 17:00,1.0,,,,313,241,554,,,,,,,
100024661,2020-03-19 18:00,1.0,,,,338,232,570,,,,,,,
100024661,2020-03-19 19:00,1.0,,,,178,154,332,,,,,,,
100024661,2020-03-19 20:00,1.0,,,,81,90,171,,,,,,,